Tracking 35280 objects as of 7-Sep-2026
HD Live streaming from Space Station
objects crossing your sky now

ZORKIY-2M-5

Track ZORKIY-2M-5 now!
10-day predictions
ZORKIY-2M-5 is classified as:


NORAD ID: 67295
Int'l Code: 2025-313AZ
Launch date: December 28, 2025
Source: (TBD)
Launch site: VOSTOCHNY COSMODROME (VOSTO)

Uplink (MHz):
Downlink (MHz): 401.165/401.230*
Beacon (MHz):
Mode: 2k4 GMSK_USP
Call sign: A0X9A/9B
Status: Active

Your satellite tracking list
Your tracking list is empty




NASA's NSSDC Master Catalog

Two Line Element Set (TLE):
1 67295U 25313AZ  26249.70479830  .00004266  00000-0  17277-3 0  9999
2 67295  97.3880 323.5949 0011499  64.4175 295.8250 15.25154844 38395
Source of the keplerian elements: AFSPC